Wind_Speed
69 64 64 59 52 51 50 48 50 47 47 50 52 55 57 56 57 58 61 64 65 61 60 60 62 63 63 64 66 67 65 63 56 57 56 62 65 71 77 84 89 87 76 63
72 67 67 65 62 61 61 60 62 61 61 57 55 59 60 60 61 60 61 63 66 65 63 62 64 66 65 65 66 64 62 60 50 57 53 61 64 72 77 86 87 84 72 67
77 73 72 70 68 67 66 65 65 66 63 60 58 60 64 63 65 67 67 64 66 64 66 65 67 65 63 64 65 59 61 54 48 50 55 62 64 71 77 83 86 78 70 68
87 82 79 71 72 74 71 72 73 72 70 67 61 62 70 71 69 70 67 67 65 63 65 68 66 64 63 62 59 57 55 50 45 50 54 60 65 70 74 80 83 73 67 68
90 90 83 81 79 78 76 79 77 74 74 71 70 72 67 72 74 69 68 66 66 65 66 67 64 64 61 61 54 56 47 45 44 47 52 58 64 68 71 76 81 71 70 67
92 91 89 88 82 80 79 82 81 79 75 73 74 75 74 78 77 72 68 67 69 71 70 68 66 61 61 55 54 50 47 43 44 44 49 55 60 66 69 74 77 69 69 60
96 95 93 88 86 83 84 87 89 85 82 78 78 80 82 75 73 71 73 74 74 72 74 66 64 60 57 51 51 47 43 42 43 42 46 52 57 61 66 71 74 68 65 57
103 98 96 92 90 89 89 87 89 92 88 82 78 77 78 78 78 79 79 78 79 79 75 66 64 57 55 51 47 44 41 40 40 42 43 49 53 56 61 66 68 66 61 52
109 107 102 97 95 92 91 92 94 94 91 88 85 80 87 83 83 83 84 85 81 77 69 63 59 56 55 51 42 39 40 38 38 39 41 44 50 53 56 62 63 64 55 53
113 111 108 105 104 101 97 97 99 98 95 92 87 83 88 90 91 89 85 84 79 79 70 60 56 54 54 53 41 37 37 40 40 41 39 40 46 49 51 57 57 58 51 48
108 107 105 107 106 104 102 99 100 99 98 94 92 93 90 95 94 90 87 84 86 80 73 63 57 53 53 47 42 38 38 38 38 37 38 39 42 45 46 52 52 54 47 42
107 108 105 105 107 107 103 102 103 100 97 95 95 97 93 96 96 92 89 89 84 79 73 65 56 51 52 48 41 36 38 36 35 40 35 39 41 40 42 47 48 49 47 37
108 106 105 105 107 106 104 103 106 107 104 100 95 90 94 95 91 93 86 83 82 75 69 60 54 53 55 50 45 39 35 36 35 41 36 35 38 38 38 42 45 44 47 36
109 105 105 106 105 103 101 104 105 103 96 90 88 88 90 94 94 89 88 81 72 67 63 59 58 58 56 54 49 44 42 41 38 38 42 35 34 36 34 36 39 39 42 40
111 107 102 103 103 103 101 100 101 101 94 90 84 84 85 86 87 86 80 77 72 71 66 65 63 62 63 56 50 49 47 44 43 42 35 37 34 35 30 34 35 35 38 40
119 117 114 113 106 102 99 97 95 96 93 90 89 86 92 88 84 82 79 77 76 74 71 68 62 57 56 53 51 54 52 49 46 40 36 33 36 35 28 31 32 31 34 37
120 118 121 120 116 116 112 105 105 101 101 98 92 92 94 93 90 86 82 78 74 70 66 64 64 55 56 58 56 57 58 56 49 41 37 35 38 36 32 29 32 28 29 30
115 111 113 115 115 118 111 113 111 106 104 106 106 103 99 98 97 94 91 85 85 82 79 77 75 69 67 64 63 61 61 58 51 43 41 39 38 39 35 24 33 28 25 27
121 115 113 112 115 119 115 111 114 115 114 113 109 108 107 105 102 102 102 99 93 92 90 86 83 79 76 74 70 65 63 61 53 50 44 42 41 40 37 27 30 31 25 25
113 113 115 115 114 113 110 108 113 118 115 114 112 111 111 111 113 108 105 103 102 98 94 95 92 84 79 74 73 74 69 69 59 56 51 44 44 43 36 31 27 31 25 27
97 96 95 95 97 99 101 102 104 103 101 104 104 105 106 108 105 99 95 91 96 88 91 95 95 91 81 80 78 76 78 77 72 59 57 52 47 47 39 37 30 30 28 30
79 80 76 75 76 76 82 85 86 86 85 86 88 86 85 86 86 86 88 90 91 88 91 91 88 89 89 87 89 86 84 81 77 66 60 58 52 52 45 40 35 33 31 25
74 68 65 61 61 63 66 65 68 69 70 72 74 76 76 76 75 75 77 78 80 81 81 80 80 80 82 83 83 81 83 83 80 74 64 61 55 55 46 42 39 35 34 32
72 67 63 60 56 56 56 54 55 54 54 56 58 57 59 59 59 60 62 62 62 63 64 64 64 64 64 65 68 70 73 74 77 78 68 63 60 59 53 48 45 38 38 37
75 72 66 62 60 60 59 55 50 50 50 48 45 45 46 45 45 44 44 44 46 50 52 53 53 52 51 50 50 53 59 63 69 74 71 64 63 61 59 52 53 46 42 41
73 72 71 69 68 64 61 58 56 52 50 48 47 45 42 39 39 41 41 42 44 46 47 48 49 48 48 48 47 47 50 56 62 72 72 68 67 64 64 59 55 56 49 46
Wind_Direction
245 250 245 249 249 251 254 258 268 267 274 280 279 282 285 286 286 291 298 299 305 307 307 310 312 317 318 320 322 326 326 328 324 326 326 324 328 326 328 332 335 340 339 340
245 243 246 248 252 257 258 262 268 270 273 280 276 278 282 283 286 292 292 296 299 303 308 310 312 314 316 318 321 324 325 328 324 328 329 327 329 328 331 334 338 342 345 348
250 251 248 247 252 257 260 265 266 271 272 278 278 275 279 282 287 295 292 295 298 302 305 308 312 313 315 317 320 322 324 326 326 330 333 330 330 330 335 337 340 345 352 350
249 250 252 250 252 254 256 262 266 271 275 277 277 277 280 282 287 296 291 296 298 303 306 307 312 312 314 316 318 320 322 324 329 334 335 332 332 333 338 339 344 346 354 352
250 251 251 249 250 253 254 259 262 266 271 275 278 280 283 283 289 290 291 296 299 302 306 308 309 311 312 313 315 319 317 323 327 335 333 332 333 334 339 342 347 349 356 353
250 252 251 255 253 256 259 260 262 263 267 272 273 278 283 287 288 288 291 294 298 301 303 306 309 309 309 310 314 316 317 325 329 335 337 332 333 334 338 344 349 352 357 356
249 251 252 252 255 258 260 262 264 262 270 272 272 277 282 285 284 286 289 292 296 299 302 304 306 306 306 305 311 313 319 325 331 332 335 331 332 334 338 344 351 353 355 354
250 252 252 253 257 259 261 264 265 265 267 274 278 277 277 279 282 286 290 292 294 298 298 300 303 301 300 302 304 309 319 325 332 333 334 328 331 333 339 345 350 354 357 355
248 250 252 254 255 257 260 264 265 267 268 271 274 275 277 280 282 284 288 290 292 297 296 298 299 297 297 298 298 310 314 324 328 328 332 327 330 332 339 344 351 354 357 353
249 251 253 255 257 260 261 263 265 266 267 269 271 275 276 279 281 283 285 287 290 295 293 293 294 294 293 295 293 304 312 317 322 329 326 326 325 331 336 343 350 356 354 355
251 253 254 255 258 260 262 264 266 266 268 270 271 273 276 279 279 281 281 283 288 291 292 291 290 291 288 289 288 300 307 311 318 321 322 323 321 328 331 340 348 353 357 357
252 255 256 258 260 261 263 264 265 266 267 269 272 276 276 277 277 280 281 284 288 289 292 288 288 288 285 280 287 296 302 306 310 323 320 326 316 324 327 336 345 349 357 358
251 252 254 256 259 261 262 262 264 266 268 270 273 274 274 277 277 280 281 283 286 287 287 285 283 277 277 274 279 292 297 307 307 312 316 312 316 319 324 330 339 347 356 355
248 251 253 255 257 259 261 261 263 265 267 267 269 270 272 275 277 277 280 281 280 280 280 278 281 276 274 270 277 286 293 301 304 307 315 306 307 311 317 323 333 343 351 358
246 247 247 251 254 256 257 259 262 264 262 264 262 264 267 268 270 275 274 274 272 274 273 274 276 272 273 268 275 281 291 295 302 304 302 310 299 302 308 315 325 336 345 356
248 248 249 250 251 252 252 253 256 258 257 258 257 260 261 264 265 267 269 268 269 269 270 274 270 271 264 262 270 278 287 292 297 296 288 291 288 292 298 305 312 326 337 344
248 252 254 254 255 255 253 253 253 254 255 256 257 259 262 263 263 263 266 266 267 266 267 268 270 267 267 267 271 278 282 287 290 289 280 285 278 283 290 296 301 316 326 335
251 253 253 253 254 255 257 258 257 257 259 258 257 256 258 261 263 264 264 266 266 267 269 268 273 272 271 271 273 275 279 281 282 276 274 273 269 278 282 280 292 302 312 326
251 251 254 255 255 254 256 258 259 261 260 261 259 259 259 262 262 263 263 266 266 266 267 268 270 272 272 274 273 273 272 273 269 268 266 265 263 269 273 266 278 288 300 311
252 254 256 256 255 255 256 257 259 260 260 262 260 259 260 262 265 266 265 266 268 266 265 268 269 269 269 267 265 269 268 266 267 264 263 261 259 262 262 261 258 276 285 295
253 255 256 255 255 256 256 257 258 258 259 260 261 262 263 264 265 265 264 262 262 263 259 266 268 268 264 262 259 261 263 264 262 258 258 256 253 254 255 254 253 260 266 282
252 253 254 255 255 255 254 254 255 256 259 260 261 260 259 259 259 260 260 259 261 261 261 263 261 260 261 256 256 256 256 259 260 256 252 251 247 249 251 248 249 249 256 264
249 251 252 254 254 254 256 257 258 256 256 256 256 257 258 257 257 257 258 259 260 261 263 264 264 263 263 262 260 257 252 249 252 254 248 247 243 246 245 242 244 244 249 254
249 250 250 251 253 253 254 253 253 254 253 253 254 254 255 256 257 257 258 260 262 263 263 263 263 261 260 258 256 253 251 247 242 245 245 242 240 240 240 239 242 239 245 248
249 249 250 250 250 248 248 247 248 249 249 248 250 251 251 251 251 252 252 253 255 256 257 257 257 257 257 255 253 251 246 240 237 233 237 235 234 236 238 235 241 239 242 243
245 245 244 244 244 249 250 250 246 245 244 245 246 248 251 252 253 253 254 254 254 254 255 257 257 257 256 254 252 250 246 237 229 224 228 230 231 233 233 230 238 238 242 238
Height
10722 10728 10728 10732 10738 10739 10741 10743 10745 10749 10751 10751 10752 10743 10743 10746 10746 10743 10740 10737 10733 10730 10726 10721 10716 10709 10702 10695 10688 10681 10672 10663 10655 10645 10634 10622 10610 10594 10578 10560 10539 10516 10495 10476
10709 10713 10717 10720 10725 10727 10729 10731 10732 10737 10740 10743 10741 10736 10731 10731 10732 10735 10733 10730 10727 10723 10720 10715 10709 10702 10695 10687 10681 10674 10666 10657 10649 10640 10628 10616 10604 10588 10572 10554 10533 10512 10491 10472
10693 10699 10703 10707 10710 10714 10717 10719 10721 10725 10727 10732 10732 10730 10716 10718 10721 10725 10722 10720 10718 10714 10711 10707 10701 10695 10687 10681 10674 10667 10659 10652 10644 10635 10623 10611 10599 10584 10569 10552 10531 10511 10491 10474
10679 10685 10685 10691 10696 10700 10705 10705 10709 10712 10717 10722 10720 10724 10711 10707 10709 10714 10712 10711 10709 10706 10702 10699 10693 10687 10680 10675 10667 10661 10653 10646 10639 10631 10619 10607 10595 10582 10566 10550 10531 10512 10494 10478
10663 10667 10671 10675 10681 10684 10694 10691 10696 10700 10704 10711 10710 10708 10711 10695 10699 10703 10703 10701 10700 10697 10694 10691 10686 10680 10673 10667 10661 10656 10647 10641 10634 10626 10615 10605 10593 10581 10566 10550 10533 10512 10496 10483
10646 10651 10654 10660 10663 10670 10676 10678 10681 10687 10691 10699 10696 10694 10703 10691 10687 10690 10692 10693 10691 10688 10685 10683 10679 10674 10667 10661 10655 10650 10642 10635 10629 10621 10611 10603 10591 10580 10566 10551 10537 10517 10502 10487
10626 10633 10636 10642 10649 10655 10659 10662 10667 10673 10677 10683 10685 10685 10682 10683 10678 10677 10679 10681 10680 10677 10677 10674 10672 10666 10660 10655 10649 10644 10637 10631 10624 10617 10609 10600 10590 10579 10567 10553 10538 10521 10509 10496
10606 10615 10621 10630 10634 10636 10642 10648 10652 10655 10661 10669 10672 10675 10673 10671 10666 10665 10666 10668 10668 10666 10666 10665 10663 10658 10653 10648 10643 10639 10632 10626 10621 10613 10606 10597 10589 10579 10569 10558 10543 10528 10515 10504
10586 10595 10605 10612 10615 10618 10628 10633 10632 10637 10645 10650 10658 10659 10656 10658 10654 10653 10652 10653 10656 10655 10655 10654 10652 10649 10645 10641 10637 10633 10626 10621 10615 10609 10603 10596 10588 10578 10569 10560 10547 10533 10521 10513
10569 10577 10588 10591 10596 10604 10610 10614 10617 10622 10627 10631 10641 10642 10639 10643 10639 10639 10640 10640 10642 10643 10644 10643 10641 10640 10636 10633 10629 10626 10621 10616 10611 10606 10599 10594 10586 10579 10569 10562 10552 10541 10526 10519
10549 10555 10567 10573 10581 10584 10590 10600 10600 10603 10609 10613 10619 10622 10626 10627 10624 10623 10624 10626 10628 10630 10632 10630 10631 10630 10626 10623 10620 10618 10614 10610 10606 10601 10595 10591 10585 10579 10571 10564 10555 10545 10534 10524
10525 10536 10548 10552 10560 10568 10575 10580 10582 10583 10590 10594 10597 10604 10609 10608 10608 10606 10607 10611 10614 10616 10616 10616 10619 10619 10616 10612 10611 10610 10607 10603 10601 10596 10592 10588 10583 10578 10572 10565 10558 10548 10539 10530
10507 10520 10529 10536 10542 10550 10554 10557 10558 10564 10574 10579 10577 10584 10582 10587 10588 10589 10592 10597 10599 10599 10600 10602 10605 10606 10606 10600 10599 10601 10600 10597 10594 10591 10588 10584 10580 10576 10571 10564 10559 10551 10542 10532
10482 10500 10511 10515 10526 10529 10538 10537 10539 10547 10557 10557 10563 10560 10563 10567 10568 10572 10579 10584 10583 10584 10585 10587 10589 10592 10593 10590 10588 10590 10590 10589 10587 10586 10583 10579 10576 10573 10569 10564 10560 10553 10545 10536
10465 10478 10486 10493 10501 10509 10518 10521 10523 10531 10533 10540 10543 10544 10545 10546 10549 10556 10563 10566 10568 10569 10571 10572 10573 10577 10579 10579 10577 10579 10580 10580 10579 10578 10576 10574 10572 10570 10566 10562 10558 10555 10547 10540
10443 10455 10465 10472 10480 10488 10497 10504 10509 10512 10513 10522 10521 10529 10514 10527 10536 10534 10546 10546 10550 10553 10554 10556 10557 10561 10564 10566 10566 10565 10568 10570 10570 10569 10569 10568 10565 10564 10563 10560 10556 10554 10548 10542
10425 10435 10443 10450 10456 10460 10474 10491 10487 10491 10496 10495 10505 10505 10504 10503 10511 10521 10521 10527 10532 10535 10536 10539 10542 10545 10550 10552 10553 10553 10555 10557 10560 10560 10560 10561 10559 10557 10557 10556 10553 10552 10548 10542
10407 10416 10421 10429 10431 10433 10459 10458 10462 10465 10467 10470 10482 10484 10486 10484 10489 10498 10500 10505 10510 10515 10517 10520 10524 10528 10531 10536 10539 10539 10540 10543 10546 10549 10550 10551 10551 10550 10551 10550 10549 10548 10545 10541
10386 10393 10397 10401 10410 10415 10429 10439 10432 10433 10441 10444 10453 10459 10461 10463 10469 10475 10479 10483 10488 10491 10494 10498 10503 10508 10510 10513 10518 10521 10524 10528 10532 10535 10539 10540 10542 10542 10542 10542 10544 10543 10541 10537
10363 10370 10369 10379 10384 10393 10404 10408 10406 10403 10413 10420 10423 10431 10437 10440 10444 10448 10454 10458 10463 10468 10471 10474 10478 10485 10490 10495 10497 10499 10504 10510 10517 10521 10524 10528 10530 10532 10533 10534 10535 10537 10537 10534
10334 10340 10345 10350 10358 10369 10376 10378 10374 10382 10393 10387 10396 10405 10413 10417 10420 10423 10427 10432 10436 10440 10445 10449 10453 10457 10463 10470 10476 10481 10484 10488 10498 10506 10508 10513 10517 10520 10523 10525 10526 10529 10530 10530
10313 10316 10327 10334 10339 10348 10345 10348 10353 10360 10368 10373 10375 10381 10385 10388 10393 10397 10400 10406 10411 10414 10419 10422 10426 10430 10435 10442 10449 10457 10464 10468 10474 10487 10492 10496 10502 10506 10511 10514 10517 10519 10522 10522
10296 10303 10306 10314 10320 10323 10326 10335 10338 10343 10346 10349 10352 10356 10363 10367 10372 10375 10378 10383 10387 10390 10394 10397 10401 10407 10409 10414 10421 10428 10435 10447 10454 10461 10472 10478 10486 10491 10497 10503 10505 10508 10511 10513
10280 10288 10296 10298 10307 10308 10313 10319 10321 10325 10330 10331 10334 10341 10344 10348 10353 10357 10361 10365 10368 10370 10373 10375 10378 10381 10384 10389 10393 10399 10408 10419 10432 10439 10450 10460 10469 10476 10483 10489 10493 10496 10500 10503
10262 10270 10281 10288 10292 10293 10295 10302 10310 10314 10317 10319 10322 10326 10330 10335 10339 10343 10346 10350 10352 10354 10355 10357 10360 10362 10366 10370 10374 10379 10384 10393 10405 10418 10427 10440 10451 10459 10466 10473 10479 10484 10488 10492
10247 10252 10258 10266 10270 10279 10285 10290 10294 10299 10304 10306 10309 10313 10319 10323 10328 10330 10333 10335 10338 10339 10341 10343 10345 10348 10351 10355 10360 10363 10367 10373 10382 10395 10407 10419 10430 10440 10449 10457 10463 10469 10474 10479